星链-11098 [DTC] (STARLINK-11098 [DTC] )

导读

STARLINK-11098是美国于2024年5月14日发射的星链卫星,隶属于SpaceX公司的星链互联网星座项目。星链项目旨在通过近地轨道卫星群,为全球提供高速互联网接入服务,该卫星入轨后将进一步扩大星链星座的覆盖范围,提升全球网络服务的容量与稳定性。

基本信息
目录编号:
59760
目录名称:
STARLINK-11098
国际标识:
2024-091H
轨道中心:
EARTH
卫星名称:
星链-11098 [DTC]
卫星全名:
星链-11098 [DTC] (STARLINK-11098 [DTC] )
卫星状态:
在轨 (已飞行804 天)
发射日期:
2024-05-14 UTC
国别 :
美国 (US)
星等 :
--
轨道信息
数据来源 国际轨道数据
星历时间: 2026-07-27T13:58:45+0800
16小时前
查看轨道信息
半长轴: 6737.879km
偏心率: 0.0001155
轨道倾角: 53.156°
近地点辐角 96.628°
升交点赤经 238.215°
平近点角 263.487°
近地点: 358.963km
远地点: 360.521km
周期: 91.737分钟
每日圈数: 15.697049
详细信息
固有亮度:
5
最大亮度:
0.6
卫星平台:
Starlink v2.0 mini
覆盖范围:
全球
运营商:
太空探索技术公司
运营商所在国:
美国
制造商(研发单位):
太空探索技术公司
制造商所在国:
美国
使用方式:
暂无
卫星简介
星链(Starlink)计划是由太空探索技术公司(SpaceX)提出的一个巨型低轨卫星互联网星座项目,计划在2019年至2024年间在太空搭建由约1.2万颗卫星组成的“星链”网络,其中1584颗将部署在地球上空550千米处的近地轨道,并从2020年开始工作。该卫星仍在工作。
2D轨道图
3D轨道图
轨道高度分析图
轨道倾角分析图
轨道综合分析图
查看轨道综合分析图